Location: Vulcan
(50.4000°N, 113.2500°W)
Time: 12:45:00
(UTC-07:00)

deb Explorer IX - Visible Passes

Search period start: 11 November 2019 00:00
Search period end: 21 November 2019 00:00
Orbit: 546 x 1105 km, 38.8° (Epoch: 09 November)

Date Brightness Start Highest point End Pass type
(mag) Time Alt. Az. Time Alt. Az. Time Alt. Az.
11 Nov ? 04:56:21 12° S 04:57:15 13° SSE 04:59:19 10° SE visible
11 Nov ? 06:40:05 10° SW 06:43:10 18° S 06:46:05 10° SE visible
12 Nov ? 04:35:48 14° SSE 04:35:48 14° SSE 04:37:42 10° SE visible
12 Nov ? 06:18:03 10° SW 06:21:18 19° S 06:24:19 10° SE visible
13 Nov ? 04:15:10 12° SE 04:15:10 12° SE 04:16:03 10° SE visible
13 Nov ? 05:56:33 12° SW 05:59:25 19° S 06:02:34 10° SE visible
14 Nov ? 05:35:53 17° SSW 05:37:31 20° S 05:40:49 10° SE visible
15 Nov ? 05:15:11 21° S 05:15:37 21° S 05:19:04 10° SE visible
15 Nov ? 06:59:01 10° SW 07:01:28 14° SSW 07:03:48 10° SSE visible
16 Nov ? 04:54:27 21° S 04:54:27 21° S 04:57:18 10° SE visible
16 Nov ? 06:36:56 10° SW 06:39:34 15° SSW 06:42:02 10° SSE visible
17 Nov ? 04:33:43 18° SSE 04:33:43 18° SSE 04:35:32 10° SE visible
17 Nov ? 06:15:06 11° SW 06:17:39 15° SSW 06:20:17 10° SSE visible
18 Nov ? 04:13:00 13° SE 04:13:00 13° SE 04:13:46 10° SE visible
18 Nov ? 05:54:22 14° SW 05:55:43 16° SSW 05:58:31 10° SSE visible
19 Nov ? 05:33:39 16° SSW 05:33:47 16° SSW 05:36:45 10° SSE visible
20 Nov ? 05:12:58 16° S 05:12:58 16° S 05:14:58 10° SSE visible
